AirNav   Air Wisconsin Up To $57,000 Bonus
 
 1112 users online  

NK26 Old Forge Airport
Old Forge, New York, USA

GOING TO OLD FORGE?


FAA INFORMATION EFFECTIVE 30 JANUARY 2020

Location

FAA Identifier: NK26
Lat/Long: 43-43-30.6600N 074-58-34.3800W
43-43.511000N 074-58.573000W
43.7251833,-74.9762167
(estimated)
Elevation: 1753 ft. / 534 m (estimated)
From city: 1 mile N of OLD FORGE, NY
Time zone: UTC -5 (UTC -4 during Daylight Saving Time)
Zip code: 13420

Airport Operations

Airport use: Private use. Permission required prior to landing
Activation date: 10/2007
Control tower: no
ARTCC: BOSTON CENTER
FSS: BUFFALO FLIGHT SERVICE STATION
Attendance: UNATNDD
Wind indicator: yes
Segmented circle: no

Nearby radio navigation aids

NDB name  Hdg/Dist  Freq  Var  ID
DRUM135/38.925713WGTB --. - -...

Airport Services

Runway Information

Runway 9/27

Dimensions: 3200 x 100 ft. / 975 x 30 m
Surface: turf
RUNWAY 9  RUNWAY 27
Traffic pattern: leftleft
Obstructions: 50 ft. trees, 300 ft. from runway50 ft. trees, 300 ft. from runway

Airport Ownership and Management from official FAA records

Ownership: Publicly-owned
Owner: OLD FORGE AIRPORT HOA, INC.
PO BOX 158
OLD FORGE, NY 13420
Phone (315) 256-7476
Manager: DAN RIVET
PO BOX 158
OLD FORGE, NY 13420
Phone 315-725-8464

Airport Operational Statistics

Aircraft based on the field: 3
Single engine airplanes: 3
    

Additional Remarks

FOR WINTER CONDITIONS & SNOW REMOVAL CALL 315-725-8464.
PPR FOR LANDING CALL 315-725-8464.
DEER ON & INVOF ARPT.
FOR CD CTC BOSTON ARTCC AT 603-879-6859.

Instrument Procedures

There are no published instrument procedures at NK26.

Some nearby airports with instrument procedures:

K09 - Piseco Airport (26 nm SE)
KRME - Griffiss International Airport (35 nm SW)
KGTB - Wheeler-Sack Army Airfield (38 nm NW)
KART - Watertown International Airport (48 nm W)
KSLK - Adirondack Regional Airport (52 nm NE)
 
Loc | Ops | Rwys | IFR | FBO | Links
Com | Nav | Svcs | Stats | Notes
Aerial photo
WARNING: Photo may not be current or correct
Aerial photo of NK26 (Old Forge Airport)
Taken in August 2004

Do you have a better or more recent aerial photo of Old Forge Airport that you would like to share? If so, please send us your photo.

 
Sectional chart

 
Airport distance calculator
Flying to Old Forge Airport? Find the distance to fly.

From to NK26

Sunrise and sunset
Times for 23-Feb-2020
 Local
(UTC-5)
 Zulu
(UTC)
Morning civil twilight06:1811:18
Sunrise06:4711:47
Sunset17:3922:39
Evening civil twilight18:0823:08

Current date and time
Zulu (UTC)  23-Feb-2020 18:35:07
Local (UTC-5)  23-Feb-2020 13:35:07
 
METAR
KRME 
36nm SW 
231753Z 00000KT 10SM CLR 06/M04 A3008 RMK AO2 SLP190 T00611044 10078 21122 58021
KGTB 
37nm NW 
231756Z AUTO 22009KT 10SM CLR 05/M05 A3002 RMK AO2 SLP172 T00451053 10047 21007 58016
KART 
48nm W 
231756Z AUTO 23009KT 10SM CLR 06/M06 A3004 RMK AO2 SLP175 T00611061 10067 20000 58015
TAF
KRME 
36nm SW 
231725Z 2318/2418 VRB03KT P6SM SKC FM241500 VRB04KT P6SM BKN045
NOTAMs
Click for the latest NOTAMs
NOTAMs are issued by the DoD/FAA and will open in a separate window not controlled by AirNav.

 

 
 

Would you like to see your business listed on this page?

 If your business provides an interesting product or service to pilots, flight crews, aircraft, or users of the Old Forge Airport, you should consider listing it here.  To start the listing process, click on the button below
 
Add a business
 

Other Pages about Old Forge Airport

Update a link
 
Copyright © AirNav, LLC. All rights reserved. Privacy Policy  Contact